Location: Spruce Knob
(38.6995°N, 79.5330°W)
Time: 20:12:39
(UTC-04:00)

BUGSAT 1 - Pass Details

Date: 30 March 2023
Orbit: 549 x 588 km, 98.1° (Epoch: 04 June)

Event Time Altitude Azimuth Distance (km) Brightness Sun altitude
Rises 20:11:51 0° 200° (SSW) 2,803 ? -7.1°
Reaches altitude 10° 20:14:30 10° 218° (SW) 1,904 ? -7.6°
Maximum altitude 20:17:30 19° 265° (W) 1,396 ? -8.1°
Drops below altitude 10° 20:20:31 10° 312° (NW) 1,902 ? -8.7°
Sets 20:23:10 0° 330° (NNW) 2,799 ? -9.2°
